Flag for U.S.A. Weather past 2 weeks in Osage City, Kansas, U.S.A.

Now
92 °F

Scattered clouds.


Feels Like: 95 °F
Forecast: 70 / 92 °F
Wind: No wind

Location: Forbes Field

Current Time: Aug 1, 2015 at 3:19:32 PM

Latest Report: Aug 1, 2015 at 2:53 PM


Visibility: 10 mi

Pressure: 29.97 "Hg

Humidity: 44%

Dew point: 67 °F

Location of Osage CityLocation

Historic Weather in Osage City — Graph

°F

Osage City temperature yesterday

Maximum temperature yesterday: 92 °F (at 5:53 PM)
Minimum temperature yesterday: 63 °F (at 5:53 AM)
Average temperature yesterday: 78 °F

Past Weeks' High & Low Weather Summary

 TemperatureHumidityPressure
High101 °F (Jul 24, 4:53 PM)91% (Jul 23, 4:53 AM)30.21 "Hg (Jul 23, 4:53 AM)
Low63 °F (Jul 22, 5:53 AM)34% (Jul 30, 4:53 PM)29.74 "Hg (Jul 17, 8:53 PM)
Average82 °F69%29.92 "Hg
* Reported Jul 17 1:53 PM — Aug 1 1:53 PM, Osage City, Weather by CustomWeather, © 2015

Note: Actual official high and low records may vary slightly from our data, if they occured in-between our weather recording intervals... More about our weather records

Advertising

Osage City weather history for previous 24 hours

 ConditionsComfort  
Time TempWeatherWind HumidityBarometerVisibility
1:53 PM
Sat, Aug 1
91 °FSunny.No wind47%29.99 "Hg10 mi
12:53 PM90 °FPartly sunny.6 mph52%30.01 "Hg10 mi
11:53 AM89 °FSunny.5 mph53%30.03 "Hg10 mi
10:53 AM87 °FSunny.6 mph63%30.04 "Hg10 mi
9:53 AM85 °FSunny.10 mph68%30.05 "Hg10 mi
8:53 AM80 °FSunny.6 mph76%30.03 "Hg10 mi
7:53 AM75 °FSunny.No wind85%30.03 "Hg8 mi
6:53 AM71 °FClear.3 mph87%30.02 "Hg9 mi
5:53 AM71 °FClear.No wind87%30.02 "Hg10 mi
4:53 AM73 °FClear.7 mph84%30.01 "Hg10 mi
3:53 AM73 °FClear.6 mph81%30.01 "Hg10 mi
2:53 AM73 °FClear.5 mph81%30.03 "Hg10 mi
1:53 AM73 °FClear.6 mph84%30.04 "Hg10 mi
12:53 AM74 °FClear.3 mph85%30.04 "Hg10 mi
11:53 PM
Fri, Jul 31
76 °FClear.No wind80%30.04 "Hg10 mi
10:53 PM77 °FClear.No wind77%30.04 "Hg10 mi
9:53 PM79 °FClear.No wind74%30.04 "Hg10 mi
8:53 PM82 °FSunny.3 mph67%30.02 "Hg10 mi
7:53 PM88 °FSunny.5 mph54%30.02 "Hg10 mi
6:53 PM90 °FSunny.5 mph45%30.02 "Hg10 mi
5:53 PM92 °FSunny.No wind43%30.03 "Hg10 mi
4:53 PM91 °FSunny.5 mph44%30.05 "Hg10 mi
3:53 PM91 °FSunny.No wind39%30.06 "Hg10 mi
Weather by CustomWeather, © 2015

See weather overviewHow to use our weather pages